owner,sensor,date,latitude,longitude,vertical_datum,sea_water_practical_salinity,qcFlag 
SCCF RECON,ioos:station:SCCF:51:1,2008-02-01T00:00:00Z,26.5545,-82.1715,2.094,36.49,1111122 
SCCF RECON,ioos:station:SCCF:51:1,2008-02-01T01:00:00Z,26.5545,-82.1715,2.073,36.53,1111122 
SCCF RECON,ioos:station:SCCF:51:1,2008-02-01T02:00:00Z,26.5545,-82.1715,2.021,36.26,1111122 
SCCF RECON,ioos:station:SCCF:51:1,2008-02-01T03:00:00Z,26.5545,-82.1715,1.96,35.97,1111122 
SCCF RECON,ioos:station:SCCF:51:1,2008-02-01T04:00:00Z,26.5545,-82.1715,1.88,35.9,1111122 
SCCF RECON,ioos:station:SCCF:51:1,2008-02-01T05:00:00Z,26.5545,-82.1715,1.784,35.85,1111122 
SCCF RECON,ioos:station:SCCF:51:1,2008-02-01T06:00:00Z,26.5545,-82.1715,1.69,35.88,1111122 
SCCF RECON,ioos:station:SCCF:51:1,2008-02-01T07:00:00Z,26.5545,-82.1715,1.598,35.8,1111122 
SCCF RECON,ioos:station:SCCF:51:1,2008-02-01T08:00:00Z,26.5545,-82.1715,1.526,35.58,1111122 
SCCF RECON,ioos:station:SCCF:51:1,2008-02-01T09:00:00Z,26.5545,-82.1715,1.49,35.48,1111122 
SCCF RECON,ioos:station:SCCF:51:1,2008-02-01T10:00:00Z,26.5545,-82.1715,1.529,35.57,1111122 
SCCF RECON,ioos:station:SCCF:51:1,2008-02-01T11:00:00Z,26.5545,-82.1715,1.609,35.7,1111122 
SCCF RECON,ioos:station:SCCF:51:1,2008-02-01T12:00:00Z,26.5545,-82.1715,1.69,35.89,1111122 
SCCF RECON,ioos:station:SCCF:51:1,2008-02-01T13:00:00Z,26.5545,-82.1715,1.731,35.88,1111122 
SCCF RECON,ioos:station:SCCF:51:1,2008-02-01T14:00:00Z,26.5545,-82.1715,1.778,35.69,1111122 
SCCF RECON,ioos:station:SCCF:51:1,2008-02-01T16:00:00Z,26.5545,-82.1715,1.89,35.95,1111122 
SCCF RECON,ioos:station:SCCF:51:1,2008-02-01T17:00:00Z,26.5545,-82.1715,1.899,36.12,1111122 
SCCF RECON,ioos:station:SCCF:51:1,2008-02-01T18:00:00Z,26.5545,-82.1715,1.905,36.32,1111122 
SCCF RECON,ioos:station:SCCF:51:1,2008-02-01T19:00:00Z,26.5545,-82.1715,1.919,36.24,1111122 
SCCF RECON,ioos:station:SCCF:51:1,2008-02-01T20:00:00Z,26.5545,-82.1715,1.9,36.23,1111122 
SCCF RECON,ioos:station:SCCF:51:1,2008-02-01T21:00:00Z,26.5545,-82.1715,1.9,36.54,1111122 
SCCF RECON,ioos:station:SCCF:51:1,2008-02-01T22:00:00Z,26.5545,-82.1715,1.929,36.33,1111122 
SCCF RECON,ioos:station:SCCF:51:1,2008-02-02T00:00:00Z,26.5545,-82.1715,2.019,36.61,1111122 
SCCF RECON,ioos:station:SCCF:51:1,2008-02-02T02:00:00Z,26.5545,-82.1715,1.98,36.54,1111122 
SCCF RECON,ioos:station:SCCF:51:1,2008-02-02T03:00:00Z,26.5545,-82.1715,1.917,36.44,1111122 
SCCF RECON,ioos:station:SCCF:51:1,2008-02-02T04:00:00Z,26.5545,-82.1715,1.84,35.99,1111122 
SCCF RECON,ioos:station:SCCF:51:1,2008-02-02T05:00:00Z,26.5545,-82.1715,1.757,35.53,1111122 
SCCF RECON,ioos:station:SCCF:51:1,2008-02-02T06:00:00Z,26.5545,-82.1715,1.67,35.46,1111122 
SCCF RECON,ioos:station:SCCF:51:1,2008-02-02T07:00:00Z,26.5545,-82.1715,1.585,35.57,1111122 
SCCF RECON,ioos:station:SCCF:51:1,2008-02-02T08:00:00Z,26.5545,-82.1715,1.503,35.6,1111122 
SCCF RECON,ioos:station:SCCF:51:1,2008-02-02T09:00:00Z,26.5545,-82.1715,1.435,35.53,1111122 
SCCF RECON,ioos:station:SCCF:51:1,2008-02-02T10:00:00Z,26.5545,-82.1715,1.381,35.5,1111122 
SCCF RECON,ioos:station:SCCF:51:1,2008-02-02T11:00:00Z,26.5545,-82.1715,1.41,35.58,1111122 
SCCF RECON,ioos:station:SCCF:51:1,2008-02-02T12:00:00Z,26.5545,-82.1715,1.47,35.71,1111122 
SCCF RECON,ioos:station:SCCF:51:1,2008-02-02T13:00:00Z,26.5545,-82.1715,1.55,35.8,1111122 
SCCF RECON,ioos:station:SCCF:51:1,2008-02-02T14:00:00Z,26.5545,-82.1715,1.63,35.86,1111122 
SCCF RECON,ioos:station:SCCF:51:1,2008-02-02T15:00:00Z,26.5545,-82.1715,1.71,36.23,1111122 
SCCF RECON,ioos:station:SCCF:51:1,2008-02-02T16:00:00Z,26.5545,-82.1715,1.777,36.2,1111122 
SCCF RECON,ioos:station:SCCF:51:1,2008-02-02T17:00:00Z,26.5545,-82.1715,1.828,36.1,1111122 
SCCF RECON,ioos:station:SCCF:51:1,2008-02-02T18:00:00Z,26.5545,-82.1715,1.849,36.16,1111122 
SCCF RECON,ioos:station:SCCF:51:1,2008-02-02T19:00:00Z,26.5545,-82.1715,1.84,36.14,1111122 
SCCF RECON,ioos:station:SCCF:51:1,2008-02-02T20:00:00Z,26.5545,-82.1715,1.825,35.9,1111122 
SCCF RECON,ioos:station:SCCF:51:1,2008-02-02T21:00:00Z,26.5545,-82.1715,1.822,36.1,1111122 
SCCF RECON,ioos:station:SCCF:51:1,2008-02-02T22:00:00Z,26.5545,-82.1715,1.857,36.28,1111122 
SCCF RECON,ioos:station:SCCF:51:1,2008-02-02T23:00:00Z,26.5545,-82.1715,1.9,36.44,1111122 
SCCF RECON,ioos:station:SCCF:51:1,2008-02-03T00:00:00Z,26.5545,-82.1715,1.949,36.39,1111122 
SCCF RECON,ioos:station:SCCF:51:1,2008-02-03T01:00:00Z,26.5545,-82.1715,1.992,36.48,1111122 
SCCF RECON,ioos:station:SCCF:51:1,2008-02-03T02:00:00Z,26.5545,-82.1715,2.002,36.5,1111122 
SCCF RECON,ioos:station:SCCF:51:1,2008-02-03T03:00:00Z,26.5545,-82.1715,1.972,36.46,1111122 
SCCF RECON,ioos:station:SCCF:51:1,2008-02-03T04:00:00Z,26.5545,-82.1715,1.922,36.38,1111122 
SCCF RECON,ioos:station:SCCF:51:1,2008-02-03T05:00:00Z,26.5545,-82.1715,1.83,36.34,1111122 
SCCF RECON,ioos:station:SCCF:51:1,2008-02-03T06:00:00Z,26.5545,-82.1715,1.72,36.15,1111122 
SCCF RECON,ioos:station:SCCF:51:1,2008-02-03T07:00:00Z,26.5545,-82.1715,1.61,35.93,1111122 
SCCF RECON,ioos:station:SCCF:51:1,2008-02-03T08:00:00Z,26.5545,-82.1715,1.5,35.77,1111122 
SCCF RECON,ioos:station:SCCF:51:1,2008-02-03T09:00:00Z,26.5545,-82.1715,1.4,35.73,1111122 
SCCF RECON,ioos:station:SCCF:51:1,2008-02-03T10:00:00Z,26.5545,-82.1715,1.33,35.56,1111122 
SCCF RECON,ioos:station:SCCF:51:1,2008-02-03T11:00:00Z,26.5545,-82.1715,1.302,35.6,1111122 
SCCF RECON,ioos:station:SCCF:51:1,2008-02-03T12:00:00Z,26.5545,-82.1715,1.35,35.71,1111122 
SCCF RECON,ioos:station:SCCF:51:1,2008-02-03T13:00:00Z,26.5545,-82.1715,1.44,35.98,1111122 
SCCF RECON,ioos:station:SCCF:51:1,2008-02-03T14:00:00Z,26.5545,-82.1715,1.548,35.87,1111122 
SCCF RECON,ioos:station:SCCF:51:1,2008-02-03T15:00:00Z,26.5545,-82.1715,1.65,36.33,1111122 
SCCF RECON,ioos:station:SCCF:51:1,2008-02-03T16:00:00Z,26.5545,-82.1715,1.74,36.48,1111122 
SCCF RECON,ioos:station:SCCF:51:1,2008-02-03T17:00:00Z,26.5545,-82.1715,1.803,36.36,1111122 
SCCF RECON,ioos:station:SCCF:51:1,2008-02-03T18:00:00Z,26.5545,-82.1715,1.831,36.34,1111122 
SCCF RECON,ioos:station:SCCF:51:1,2008-02-03T19:00:00Z,26.5545,-82.1715,1.813,36.43,1111122 
SCCF RECON,ioos:station:SCCF:51:1,2008-02-03T20:00:00Z,26.5545,-82.1715,1.789,36.29,1111122 
SCCF RECON,ioos:station:SCCF:51:1,2008-02-03T21:00:00Z,26.5545,-82.1715,1.786,36.14,1111122 
SCCF RECON,ioos:station:SCCF:51:1,2008-02-03T22:00:00Z,26.5545,-82.1715,1.815,36.21,1111122 
SCCF RECON,ioos:station:SCCF:51:1,2008-02-03T23:00:00Z,26.5545,-82.1715,1.869,36.45,1111122 
SCCF RECON,ioos:station:SCCF:51:1,2008-02-04T00:00:00Z,26.5545,-82.1715,1.924,36.49,1111122 
SCCF RECON,ioos:station:SCCF:51:1,2008-02-04T01:00:00Z,26.5545,-82.1715,1.98,36.52,1111122 
SCCF RECON,ioos:station:SCCF:51:1,2008-02-04T02:00:00Z,26.5545,-82.1715,2.011,36.57,1111122 
SCCF RECON,ioos:station:SCCF:51:1,2008-02-04T03:00:00Z,26.5545,-82.1715,2.011,36.56,1111122 
SCCF RECON,ioos:station:SCCF:51:1,2008-02-04T05:00:00Z,26.5545,-82.1715,1.9,36.5,1111122 
SCCF RECON,ioos:station:SCCF:51:1,2008-02-04T06:00:00Z,26.5545,-82.1715,1.8,36.44,1111122 
SCCF RECON,ioos:station:SCCF:51:1,2008-02-04T07:00:00Z,26.5545,-82.1715,1.69,36.15,1111122 
SCCF RECON,ioos:station:SCCF:51:1,2008-02-04T08:00:00Z,26.5545,-82.1715,1.57,35.97,1111122 
SCCF RECON,ioos:station:SCCF:51:1,2008-02-04T09:00:00Z,26.5545,-82.1715,1.46,35.96,1111122 
SCCF RECON,ioos:station:SCCF:51:1,2008-02-04T10:00:00Z,26.5545,-82.1715,1.357,35.94,1111122 
SCCF RECON,ioos:station:SCCF:51:1,2008-02-04T11:00:00Z,26.5545,-82.1715,1.28,35.92,1111122 
SCCF RECON,ioos:station:SCCF:51:1,2008-02-04T12:00:00Z,26.5545,-82.1715,1.27,35.95,1111122 
SCCF RECON,ioos:station:SCCF:51:1,2008-02-04T13:00:00Z,26.5545,-82.1715,1.347,36.03,1111122 
SCCF RECON,ioos:station:SCCF:51:1,2008-02-04T14:00:00Z,26.5545,-82.1715,1.466,36.02,1111122 
SCCF RECON,ioos:station:SCCF:51:1,2008-02-04T15:00:00Z,26.5545,-82.1715,1.594,36.38,1111122 
SCCF RECON,ioos:station:SCCF:51:1,2008-02-04T16:00:00Z,26.5545,-82.1715,1.7,36.37,1111122 
SCCF RECON,ioos:station:SCCF:51:1,2008-02-04T17:00:00Z,26.5545,-82.1715,1.777,36.37,1111122 
SCCF RECON,ioos:station:SCCF:51:1,2008-02-04T18:00:00Z,26.5545,-82.1715,1.816,36.38,1111122 
SCCF RECON,ioos:station:SCCF:51:1,2008-02-04T19:00:00Z,26.5545,-82.1715,1.812,36.39,1111122 
SCCF RECON,ioos:station:SCCF:51:1,2008-02-04T20:00:00Z,26.5545,-82.1715,1.796,36.33,1111122 
SCCF RECON,ioos:station:SCCF:51:1,2008-02-04T21:00:00Z,26.5545,-82.1715,1.77,36.17,1111122 
SCCF RECON,ioos:station:SCCF:51:1,2008-02-05T00:00:00Z,26.5545,-82.1715,1.92,36.6,1111122 
SCCF RECON,ioos:station:SCCF:51:1,2008-02-05T01:00:00Z,26.5545,-82.1715,2.01,36.6,1111122 
SCCF RECON,ioos:station:SCCF:51:1,2008-02-05T02:00:00Z,26.5545,-82.1715,2.08,36.67,1111122 
SCCF RECON,ioos:station:SCCF:51:1,2008-02-05T03:00:00Z,26.5545,-82.1715,2.12,36.68,1111122 
SCCF RECON,ioos:station:SCCF:51:1,2008-02-05T04:00:00Z,26.5545,-82.1715,2.12,36.69,1111122 
SCCF RECON,ioos:station:SCCF:51:1,2008-02-05T05:00:00Z,26.5545,-82.1715,2.059,36.63,1111122 
SCCF RECON,ioos:station:SCCF:51:1,2008-02-05T06:00:00Z,26.5545,-82.1715,1.97,36.57,1111122 
SCCF RECON,ioos:station:SCCF:51:1,2008-02-05T07:00:00Z,26.5545,-82.1715,1.86,36.31,1111122 
SCCF RECON,ioos:station:SCCF:51:1,2008-02-05T08:00:00Z,26.5545,-82.1715,1.73,36.05,1111122 
SCCF RECON,ioos:station:SCCF:51:1,2008-02-05T09:00:00Z,26.5545,-82.1715,1.6,35.98,1111122 
SCCF RECON,ioos:station:SCCF:51:1,2008-02-05T10:00:00Z,26.5545,-82.1715,1.48,35.95,1111122 
SCCF RECON,ioos:station:SCCF:51:1,2008-02-05T11:00:00Z,26.5545,-82.1715,1.374,35.92,1111122 
SCCF RECON,ioos:station:SCCF:51:1,2008-02-05T12:00:00Z,26.5545,-82.1715,1.31,35.84,1111122 
SCCF RECON,ioos:station:SCCF:51:1,2008-02-05T13:00:00Z,26.5545,-82.1715,1.328,35.8,1111122 
SCCF RECON,ioos:station:SCCF:51:1,2008-02-05T14:00:00Z,26.5545,-82.1715,1.419,35.92,1111122 
SCCF RECON,ioos:station:SCCF:51:1,2008-02-05T15:00:00Z,26.5545,-82.1715,1.545,35.93,1111122 
SCCF RECON,ioos:station:SCCF:51:1,2008-02-05T16:00:00Z,26.5545,-82.1715,1.666,36.36,1111122 
SCCF RECON,ioos:station:SCCF:51:1,2008-02-05T17:00:00Z,26.5545,-82.1715,1.754,36.12,1111122 
SCCF RECON,ioos:station:SCCF:51:1,2008-02-05T18:00:00Z,26.5545,-82.1715,1.805,36.42,1111122 
SCCF RECON,ioos:station:SCCF:51:1,2008-02-05T19:00:00Z,26.5545,-82.1715,1.819,36.22,1111122 
SCCF RECON,ioos:station:SCCF:51:1,2008-02-05T20:00:00Z,26.5545,-82.1715,1.788,36.07,1111122 
SCCF RECON,ioos:station:SCCF:51:1,2008-02-05T21:00:00Z,26.5545,-82.1715,1.742,35.95,1111122 
SCCF RECON,ioos:station:SCCF:51:1,2008-02-05T22:00:00Z,26.5545,-82.1715,1.73,36.0,1111122 
SCCF RECON,ioos:station:SCCF:51:1,2008-02-05T23:00:00Z,26.5545,-82.1715,1.759,35.99,1111122 
SCCF RECON,ioos:station:SCCF:51:1,2008-02-06T00:00:00Z,26.5545,-82.1715,1.818,36.23,1111122 
SCCF RECON,ioos:station:SCCF:51:1,2008-02-06T01:00:00Z,26.5545,-82.1715,1.903,36.62,1111122 
SCCF RECON,ioos:station:SCCF:51:1,2008-02-06T02:00:00Z,26.5545,-82.1715,2.0,36.67,1111122 
SCCF RECON,ioos:station:SCCF:51:1,2008-02-06T03:00:00Z,26.5545,-82.1715,2.084,36.67,1111122 
SCCF RECON,ioos:station:SCCF:51:1,2008-02-06T04:00:00Z,26.5545,-82.1715,2.15,36.66,1111122 
SCCF RECON,ioos:station:SCCF:51:1,2008-02-06T05:00:00Z,26.5545,-82.1715,2.141,36.64,1111122 
SCCF RECON,ioos:station:SCCF:51:1,2008-02-06T06:00:00Z,26.5545,-82.1715,2.08,36.63,1111122 
SCCF RECON,ioos:station:SCCF:51:1,2008-02-06T07:00:00Z,26.5545,-82.1715,1.982,36.43,1111122 
SCCF RECON,ioos:station:SCCF:51:1,2008-02-06T08:00:00Z,26.5545,-82.1715,1.857,35.97,1111122 
SCCF RECON,ioos:station:SCCF:51:1,2008-02-06T09:00:00Z,26.5545,-82.1715,1.715,35.72,1111122 
SCCF RECON,ioos:station:SCCF:51:1,2008-02-06T10:00:00Z,26.5545,-82.1715,1.587,35.67,1111122 
SCCF RECON,ioos:station:SCCF:51:1,2008-02-06T11:00:00Z,26.5545,-82.1715,1.48,35.68,1111122 
SCCF RECON,ioos:station:SCCF:51:1,2008-02-06T12:00:00Z,26.5545,-82.1715,1.389,35.67,1111122 
SCCF RECON,ioos:station:SCCF:51:1,2008-02-06T13:00:00Z,26.5545,-82.1715,1.364,35.64,1111122 
SCCF RECON,ioos:station:SCCF:51:1,2008-02-06T14:00:00Z,26.5545,-82.1715,1.432,35.62,1111122 
SCCF RECON,ioos:station:SCCF:51:1,2008-02-06T15:00:00Z,26.5545,-82.1715,1.571,35.72,1111122 
SCCF RECON,ioos:station:SCCF:51:1,2008-02-06T16:00:00Z,26.5545,-82.1715,1.711,35.94,1111122 
SCCF RECON,ioos:station:SCCF:51:1,2008-02-06T17:00:00Z,26.5545,-82.1715,1.832,36.36,1111122 
SCCF RECON,ioos:station:SCCF:51:1,2008-02-06T18:00:00Z,26.5545,-82.1715,1.915,36.72,1111122 
SCCF RECON,ioos:station:SCCF:51:1,2008-02-06T20:00:00Z,26.5545,-82.1715,1.914,36.27,1111122 
SCCF RECON,ioos:station:SCCF:51:1,2008-02-06T21:00:00Z,26.5545,-82.1715,1.791,35.82,1111122 
SCCF RECON,ioos:station:SCCF:51:1,2008-02-06T22:00:00Z,26.5545,-82.1715,1.715,35.9,1111122 
SCCF RECON,ioos:station:SCCF:51:1,2008-02-06T23:00:00Z,26.5545,-82.1715,1.667,35.95,1111122 
SCCF RECON,ioos:station:SCCF:51:1,2008-02-07T00:00:00Z,26.5545,-82.1715,1.71,35.95,1111122 
SCCF RECON,ioos:station:SCCF:51:1,2008-02-07T01:00:00Z,26.5545,-82.1715,1.778,36.0,1111122 
SCCF RECON,ioos:station:SCCF:51:1,2008-02-07T02:00:00Z,26.5545,-82.1715,1.869,36.46,1111122 
SCCF RECON,ioos:station:SCCF:51:1,2008-02-07T03:00:00Z,26.5545,-82.1715,1.979,36.66,1111122 
SCCF RECON,ioos:station:SCCF:51:1,2008-02-07T04:00:00Z,26.5545,-82.1715,2.055,36.62,1111122 
SCCF RECON,ioos:station:SCCF:51:1,2008-02-07T05:00:00Z,26.5545,-82.1715,2.093,36.59,1111122 
SCCF RECON,ioos:station:SCCF:51:1,2008-02-07T06:00:00Z,26.5545,-82.1715,2.069,36.66,1111122 
SCCF RECON,ioos:station:SCCF:51:1,2008-02-07T07:00:00Z,26.5545,-82.1715,1.992,36.53,1111122 
SCCF RECON,ioos:station:SCCF:51:1,2008-02-07T08:00:00Z,26.5545,-82.1715,1.879,36.07,1111122 
SCCF RECON,ioos:station:SCCF:51:1,2008-02-07T09:00:00Z,26.5545,-82.1715,1.75,35.96,1111122 
SCCF RECON,ioos:station:SCCF:51:1,2008-02-07T10:00:00Z,26.5545,-82.1715,1.613,35.96,1111122 
SCCF RECON,ioos:station:SCCF:51:1,2008-02-07T11:00:00Z,26.5545,-82.1715,1.488,35.91,1111122 
SCCF RECON,ioos:station:SCCF:51:1,2008-02-07T12:00:00Z,26.5545,-82.1715,1.39,35.87,1111122 
SCCF RECON,ioos:station:SCCF:51:1,2008-02-07T13:00:00Z,26.5545,-82.1715,1.317,35.84,1111122 
SCCF RECON,ioos:station:SCCF:51:1,2008-02-07T14:00:00Z,26.5545,-82.1715,1.341,35.95,1111122 
SCCF RECON,ioos:station:SCCF:51:1,2008-02-07T15:00:00Z,26.5545,-82.1715,1.44,35.96,1111122 
SCCF RECON,ioos:station:SCCF:51:1,2008-02-07T16:00:00Z,26.5545,-82.1715,1.579,36.04,1111122 
SCCF RECON,ioos:station:SCCF:51:1,2008-02-07T17:00:00Z,26.5545,-82.1715,1.711,36.05,1111122 
SCCF RECON,ioos:station:SCCF:51:1,2008-02-07T18:00:00Z,26.5545,-82.1715,1.808,36.16,1111122 
SCCF RECON,ioos:station:SCCF:51:1,2008-02-07T19:00:00Z,26.5545,-82.1715,1.85,36.43,1111122 
SCCF RECON,ioos:station:SCCF:51:1,2008-02-07T20:00:00Z,26.5545,-82.1715,1.821,36.07,1111122 
SCCF RECON,ioos:station:SCCF:51:1,2008-02-07T21:00:00Z,26.5545,-82.1715,1.751,35.9,1111122 
SCCF RECON,ioos:station:SCCF:51:1,2008-02-07T22:00:00Z,26.5545,-82.1715,1.676,35.83,1111122 
SCCF RECON,ioos:station:SCCF:51:1,2008-02-07T23:00:00Z,26.5545,-82.1715,1.618,35.84,1111122 
SCCF RECON,ioos:station:SCCF:51:1,2008-02-08T00:00:00Z,26.5545,-82.1715,1.597,35.83,1111122 
SCCF RECON,ioos:station:SCCF:51:1,2008-02-08T01:00:00Z,26.5545,-82.1715,1.632,35.87,1111122 
SCCF RECON,ioos:station:SCCF:51:1,2008-02-08T02:00:00Z,26.5545,-82.1715,1.71,35.99,1111122 
SCCF RECON,ioos:station:SCCF:51:1,2008-02-08T03:00:00Z,26.5545,-82.1715,1.814,36.57,1111122 
SCCF RECON,ioos:station:SCCF:51:1,2008-02-08T04:00:00Z,26.5545,-82.1715,1.932,36.6,1111122 
SCCF RECON,ioos:station:SCCF:51:1,2008-02-08T05:00:00Z,26.5545,-82.1715,2.021,36.6,1111122 
SCCF RECON,ioos:station:SCCF:51:1,2008-02-08T06:00:00Z,26.5545,-82.1715,2.051,36.58,1111122 
SCCF RECON,ioos:station:SCCF:51:1,2008-02-08T07:00:00Z,26.5545,-82.1715,2.01,36.55,1111122 
SCCF RECON,ioos:station:SCCF:51:1,2008-02-08T08:00:00Z,26.5545,-82.1715,1.919,36.3,1111122 
SCCF RECON,ioos:station:SCCF:51:1,2008-02-08T09:00:00Z,26.5545,-82.1715,1.799,36.01,1111122 
SCCF RECON,ioos:station:SCCF:51:1,2008-02-08T10:00:00Z,26.5545,-82.1715,1.671,35.87,1111122 
SCCF RECON,ioos:station:SCCF:51:1,2008-02-08T11:00:00Z,26.5545,-82.1715,1.548,35.82,1111122 
SCCF RECON,ioos:station:SCCF:51:1,2008-02-08T12:00:00Z,26.5545,-82.1715,1.444,35.81,1111122 
SCCF RECON,ioos:station:SCCF:51:1,2008-02-08T13:00:00Z,26.5545,-82.1715,1.361,35.81,1111122 
SCCF RECON,ioos:station:SCCF:51:1,2008-02-08T14:00:00Z,26.5545,-82.1715,1.331,35.79,1111122 
SCCF RECON,ioos:station:SCCF:51:1,2008-02-08T15:00:00Z,26.5545,-82.1715,1.405,35.84,1111122 
SCCF RECON,ioos:station:SCCF:51:1,2008-02-08T16:00:00Z,26.5545,-82.1715,1.53,35.91,1111122 
SCCF RECON,ioos:station:SCCF:51:1,2008-02-08T17:00:00Z,26.5545,-82.1715,1.667,36.39,1111122 
SCCF RECON,ioos:station:SCCF:51:1,2008-02-08T18:00:00Z,26.5545,-82.1715,1.784,36.53,1111122 
SCCF RECON,ioos:station:SCCF:51:1,2008-02-08T19:00:00Z,26.5545,-82.1715,1.841,36.52,1111122 
SCCF RECON,ioos:station:SCCF:51:1,2008-02-08T20:00:00Z,26.5545,-82.1715,1.839,36.43,1111122 
SCCF RECON,ioos:station:SCCF:51:1,2008-02-08T21:00:00Z,26.5545,-82.1715,1.782,36.15,1111122 
SCCF RECON,ioos:station:SCCF:51:1,2008-02-08T22:00:00Z,26.5545,-82.1715,1.71,35.99,1111122 
SCCF RECON,ioos:station:SCCF:51:1,2008-02-08T23:00:00Z,26.5545,-82.1715,1.629,35.96,1111122 
SCCF RECON,ioos:station:SCCF:51:1,2008-02-09T00:00:00Z,26.5545,-82.1715,1.56,35.93,1111122 
SCCF RECON,ioos:station:SCCF:51:1,2008-02-09T01:00:00Z,26.5545,-82.1715,1.55,35.95,1111122 
SCCF RECON,ioos:station:SCCF:51:1,2008-02-09T02:00:00Z,26.5545,-82.1715,1.605,35.88,1111122 
SCCF RECON,ioos:station:SCCF:51:1,2008-02-09T03:00:00Z,26.5545,-82.1715,1.681,36.09,1111122 
SCCF RECON,ioos:station:SCCF:51:1,2008-02-09T04:00:00Z,26.5545,-82.1715,1.81,36.45,1111122 
SCCF RECON,ioos:station:SCCF:51:1,2008-02-09T05:00:00Z,26.5545,-82.1715,1.94,36.63,1111122 
SCCF RECON,ioos:station:SCCF:51:1,2008-02-09T06:00:00Z,26.5545,-82.1715,2.028,36.61,1111122 
SCCF RECON,ioos:station:SCCF:51:1,2008-02-09T07:00:00Z,26.5545,-82.1715,2.04,36.58,1111122 
SCCF RECON,ioos:station:SCCF:51:1,2008-02-09T08:00:00Z,26.5545,-82.1715,1.975,36.59,1111122 
SCCF RECON,ioos:station:SCCF:51:1,2008-02-09T09:00:00Z,26.5545,-82.1715,1.88,36.41,1111122 
SCCF RECON,ioos:station:SCCF:51:1,2008-02-09T10:00:00Z,26.5545,-82.1715,1.76,36.13,1111122 
SCCF RECON,ioos:station:SCCF:51:1,2008-02-09T11:00:00Z,26.5545,-82.1715,1.64,35.96,1111122 
SCCF RECON,ioos:station:SCCF:51:1,2008-02-09T12:00:00Z,26.5545,-82.1715,1.532,35.89,1111122 
SCCF RECON,ioos:station:SCCF:51:1,2008-02-09T13:00:00Z,26.5545,-82.1715,1.433,35.91,1111122 
SCCF RECON,ioos:station:SCCF:51:1,2008-02-09T14:00:00Z,26.5545,-82.1715,1.367,35.89,1111122 
SCCF RECON,ioos:station:SCCF:51:1,2008-02-09T15:00:00Z,26.5545,-82.1715,1.373,35.88,1111122 
SCCF RECON,ioos:station:SCCF:51:1,2008-02-09T16:00:00Z,26.5545,-82.1715,1.452,35.93,1111122 
SCCF RECON,ioos:station:SCCF:51:1,2008-02-09T17:00:00Z,26.5545,-82.1715,1.573,36.08,1111122 
SCCF RECON,ioos:station:SCCF:51:1,2008-02-09T18:00:00Z,26.5545,-82.1715,1.694,36.54,1111122 
SCCF RECON,ioos:station:SCCF:51:1,2008-02-09T19:00:00Z,26.5545,-82.1715,1.789,36.53,1111122 
SCCF RECON,ioos:station:SCCF:51:1,2008-02-09T20:00:00Z,26.5545,-82.1715,1.813,36.44,1111122 
SCCF RECON,ioos:station:SCCF:51:1,2008-02-09T21:00:00Z,26.5545,-82.1715,1.77,36.36,1111122 
SCCF RECON,ioos:station:SCCF:51:1,2008-02-09T22:00:00Z,26.5545,-82.1715,1.679,36.0,1111122 
SCCF RECON,ioos:station:SCCF:51:1,2008-02-09T23:00:00Z,26.5545,-82.1715,1.586,35.92,1111122 
SCCF RECON,ioos:station:SCCF:51:1,2008-02-10T00:00:00Z,26.5545,-82.1715,1.504,35.93,1111122 
SCCF RECON,ioos:station:SCCF:51:1,2008-02-10T01:00:00Z,26.5545,-82.1715,1.446,36.0,1111122 
SCCF RECON,ioos:station:SCCF:51:1,2008-02-10T02:00:00Z,26.5545,-82.1715,1.441,36.0,1111122 
SCCF RECON,ioos:station:SCCF:51:1,2008-02-10T03:00:00Z,26.5545,-82.1715,1.503,35.94,1111122 
SCCF RECON,ioos:station:SCCF:51:1,2008-02-10T05:00:00Z,26.5545,-82.1715,1.704,36.31,1111122 
SCCF RECON,ioos:station:SCCF:51:1,2008-02-10T06:00:00Z,26.5545,-82.1715,1.824,36.61,1111122 
SCCF RECON,ioos:station:SCCF:51:1,2008-02-10T07:00:00Z,26.5545,-82.1715,1.898,36.68,1111122 
SCCF RECON,ioos:station:SCCF:51:1,2008-02-10T08:00:00Z,26.5545,-82.1715,1.899,36.69,1111122 
SCCF RECON,ioos:station:SCCF:51:1,2008-02-10T09:00:00Z,26.5545,-82.1715,1.84,36.68,1111122 
SCCF RECON,ioos:station:SCCF:51:1,2008-02-10T10:00:00Z,26.5545,-82.1715,1.76,36.49,1111122 
SCCF RECON,ioos:station:SCCF:51:1,2008-02-10T11:00:00Z,26.5545,-82.1715,1.67,36.19,1111122 
SCCF RECON,ioos:station:SCCF:51:1,2008-02-10T12:00:00Z,26.5545,-82.1715,1.576,36.13,1111122 
SCCF RECON,ioos:station:SCCF:51:1,2008-02-10T13:00:00Z,26.5545,-82.1715,1.494,36.04,1111122 
SCCF RECON,ioos:station:SCCF:51:1,2008-02-10T14:00:00Z,26.5545,-82.1715,1.421,35.98,1111122 
SCCF RECON,ioos:station:SCCF:51:1,2008-02-10T15:00:00Z,26.5545,-82.1715,1.392,35.98,1111122 
SCCF RECON,ioos:station:SCCF:51:1,2008-02-10T16:00:00Z,26.5545,-82.1715,1.443,36.11,1111122 
SCCF RECON,ioos:station:SCCF:51:1,2008-02-10T17:00:00Z,26.5545,-82.1715,1.517,36.34,1111122 
SCCF RECON,ioos:station:SCCF:51:1,2008-02-10T18:00:00Z,26.5545,-82.1715,1.619,36.47,1111122 
SCCF RECON,ioos:station:SCCF:51:1,2008-02-10T19:00:00Z,26.5545,-82.1715,1.713,36.61,1111122 
SCCF RECON,ioos:station:SCCF:51:1,2008-02-10T20:00:00Z,26.5545,-82.1715,1.784,36.71,1111122 
SCCF RECON,ioos:station:SCCF:51:1,2008-02-10T21:00:00Z,26.5545,-82.1715,1.778,36.72,1111122 
SCCF RECON,ioos:station:SCCF:51:1,2008-02-10T22:00:00Z,26.5545,-82.1715,1.716,36.6,1111122 
SCCF RECON,ioos:station:SCCF:51:1,2008-02-10T23:00:00Z,26.5545,-82.1715,1.625,36.38,1111122 
SCCF RECON,ioos:station:SCCF:51:1,2008-02-11T00:00:00Z,26.5545,-82.1715,1.53,36.14,1111122 
SCCF RECON,ioos:station:SCCF:51:1,2008-02-11T01:00:00Z,26.5545,-82.1715,1.441,36.06,1111122 
SCCF RECON,ioos:station:SCCF:51:1,2008-02-11T02:00:00Z,26.5545,-82.1715,1.361,35.96,1111122 
SCCF RECON,ioos:station:SCCF:51:1,2008-02-11T03:00:00Z,26.5545,-82.1715,1.323,35.95,1111122 
SCCF RECON,ioos:station:SCCF:51:1,2008-02-11T04:00:00Z,26.5545,-82.1715,1.357,35.98,1111122 
SCCF RECON,ioos:station:SCCF:51:1,2008-02-11T05:00:00Z,26.5545,-82.1715,1.426,36.09,1111122 
SCCF RECON,ioos:station:SCCF:51:1,2008-02-11T06:00:00Z,26.5545,-82.1715,1.517,36.34,1111122 
SCCF RECON,ioos:station:SCCF:51:1,2008-02-11T07:00:00Z,26.5545,-82.1715,1.608,36.56,1111122 
SCCF RECON,ioos:station:SCCF:51:1,2008-02-11T08:00:00Z,26.5545,-82.1715,1.668,36.71,1111122 
SCCF RECON,ioos:station:SCCF:51:1,2008-02-11T09:00:00Z,26.5545,-82.1715,1.661,36.78,1111122 
SCCF RECON,ioos:station:SCCF:51:1,2008-02-11T10:00:00Z,26.5545,-82.1715,1.608,36.74,1111122 
SCCF RECON,ioos:station:SCCF:51:1,2008-02-11T11:00:00Z,26.5545,-82.1715,1.542,36.33,1111122 
SCCF RECON,ioos:station:SCCF:51:1,2008-02-11T12:00:00Z,26.5545,-82.1715,1.459,36.19,1111122 
SCCF RECON,ioos:station:SCCF:51:1,2008-02-11T13:00:00Z,26.5545,-82.1715,1.376,36.24,1111122 
SCCF RECON,ioos:station:SCCF:51:1,2008-02-11T14:00:00Z,26.5545,-82.1715,1.338,36.13,1111122 
SCCF RECON,ioos:station:SCCF:51:1,2008-02-11T15:00:00Z,26.5545,-82.1715,1.358,36.22,1111122 
SCCF RECON,ioos:station:SCCF:51:1,2008-02-11T16:00:00Z,26.5545,-82.1715,1.418,36.17,1111122 
SCCF RECON,ioos:station:SCCF:51:1,2008-02-11T17:00:00Z,26.5545,-82.1715,1.498,36.45,1111122 
SCCF RECON,ioos:station:SCCF:51:1,2008-02-11T18:00:00Z,26.5545,-82.1715,1.614,36.76,1111122 
SCCF RECON,ioos:station:SCCF:51:1,2008-02-11T19:00:00Z,26.5545,-82.1715,1.711,36.78,1111122 
SCCF RECON,ioos:station:SCCF:51:1,2008-02-11T20:00:00Z,26.5545,-82.1715,1.796,36.79,1111122 
SCCF RECON,ioos:station:SCCF:51:1,2008-02-11T21:00:00Z,26.5545,-82.1715,1.852,36.79,1111122 
SCCF RECON,ioos:station:SCCF:51:1,2008-02-11T22:00:00Z,26.5545,-82.1715,1.848,36.77,1111122 
SCCF RECON,ioos:station:SCCF:51:1,2008-02-11T23:00:00Z,26.5545,-82.1715,1.795,36.59,1111122 
SCCF RECON,ioos:station:SCCF:51:1,2008-02-12T00:00:00Z,26.5545,-82.1715,1.717,36.31,1111122 
SCCF RECON,ioos:station:SCCF:51:1,2008-02-12T01:00:00Z,26.5545,-82.1715,1.615,36.31,1111122 